Regional Weather Roundup
Issued by NWS

Home | Current Version | Previous Version | Graphics & Text | Print | Product List | Glossary Off
Versions: 1 2 3 4 5 6 7 8 9 10 11 12 13 14 15 16 17 18 19 20 21 22 23 24 25 26 27 28 29 30 31 32 33 34 35 36 37 38 39 40 41 42 43 44 45 46 47 48 49 50

000
ASUS43 KLOT 020206
RWRIL

ILLINOIS REGIONAL WEATHER ROUNDUP
NATIONAL WEATHER SERVICE CHICAGO/ROMEOVILLE IL
800 PM CST SUN FEB 01 2015

NOTE: "FAIR" INDICATES FEW OR NO CLOUDS BELOW 12,000 FEET WITH NO
SIGNIFICANT WEATHER AND/OR OBSTRUCTIONS TO VISIBILITY.

* THESE STATIONS ARE NOT UNDER NWS QUALITY CONTROL. THEY ALSO MAY NOT
  REPORT WEATHER SUCH AS PRECIPITATION OR FOG.

ILZ001-002-007-009-015-016-024-020300-
NORTHWEST ILLINOIS

CITY           SKY/WX    TMP DP  RH WIND       PRES   REMARKS
MOLINE         LGT SNOW  15  10  80 N15G24    29.97R WCI   0
STERLING*        N/A    N/A N/A N/A MISG        N/A
SAVANNA*       LGT SNOW  13   8  78 N13       29.98R WCI  -1
$$

ILZ003-004-008-010-011-017-018-020300-
NORTH CENTRAL ILLINOIS

CITY           SKY/WX    TMP DP  RH WIND       PRES   REMARKS
ROCKFORD       SNOW      11   6  81 N30G38    29.92R VSB 1/2 WCI -11
FREEPORT*      LGT SNOW  10   6  82 N22G36    29.96R WCI  -9
ROCHELLE*      CLOUDY    11   8  88 N18G25    29.87R WCI  -7
DE KALB*       LGT SNOW  13  10  89 N22G28    29.83R WCI  -6
PERU*            N/A     16  14  93 N21G28    29.85R WCI  -2
$$

ILZ005-006-012>014-019>023-020300-
NORTHEAST ILLINOIS

CITY           SKY/WX    TMP DP  RH WIND       PRES   REMARKS
CHICAGO-OHARE  SNOW      21  19  92 NE21G31   29.80S VSB 1/2 WCI   5
CHICAGO-MIDWAY LGT SNOW  22  19  89 N29G37    29.79R VSB 1   WCI   4
AURORA         LGT SNOW  22  17  81 N24G32    29.80R VSB 1   WCI   5
LANSING*       HVY SNOW  22  20  93 NE12      29.75S VSB 1/4 WCI  10
JOLIET*        LGT SNOW  22  18  87 NE13G18   29.77R VSB 3/4 WCI  10
WAUKEGAN       FOG       20  17  88 N26G37    29.83F VSB 1/4 WCI   2
DUPAGE AIRPORT LGT SNOW  21  18  88 N18       29.79R VSB 3/4 WCI   6
KANKAKEE*      LGT SNOW  23  20  88 N23       29.72R WCI   7
WHEELING       FOG       21  18  88 N21G33    29.84S VSB 1/2 WCI   5
MORRIS*        LGT SNOW  22  21  95 N8        29.78R VSB 1   WCI  13
ROMEOVILLE*    LGT SNOW  22  19  89 NE22      29.76R WCI   6
NORTHERLY ISL    N/A     22  21  96 N30         N/A  WCI   4
$$

LMZ740>746-020300-
SOUTHERN LAKE MICHIGAN

STATION/POSITION SKY/WX   TEMP    WIND        PRES    VSBY  WAVE
                          AIR SEA DIR/SP/G                  HT/PER
                          (F)     (DEG/KT/KT) (MB)    (MI)  (FT/S)
WAUKEGAN HARBOR            22      30/ 34/ 43   N/A
HARRISON CRIB              21      20/ 35/ 40   N/A
BURNHAM HARBOR             22     350/ 27/ 30   N/A
CALUMET HARBOR             22      30/ 26/ 30   N/A
MICHIGAN CITY              19      20/ 30/ 35   N/A
$$

ILZ025>027-034>036-040-047-049-050-058-095>099-020300-
WEST-CENTRAL ILLINOIS

CITY           SKY/WX    TMP DP  RH WIND       PRES   REMARKS
QUINCY         LGT SNOW  19  15  84 N25       29.92R VSB 1   WCI   1
GALESBURG*     LGT SNOW  16  14  90 N21G26    29.92R WCI  -1
MACOMB*        LGT SNOW  18  16  92 N28G35    29.94R WCI  -1
JACKSONVILLE*  LGT SNOW  27  22  82 N21G28    29.85R WCI  13
PITTSFIELD*    LGT SNOW  24  21  87 NW23      29.89R VSB 1   WCI   8
$$

ILZ028>032-037-038-041>044-048-051>054-059>061-020300-
CENTRAL ILLINOIS

CITY           SKY/WX    TMP DP  RH WIND       PRES   REMARKS
PONTIAC        LGT SNOW  24  22  91 N24G35    29.75R WCI   8
BLOOMINGTON    CLOUDY    23  21  92 N18G24    29.75R FOG     WCI   9
DECATUR        CLOUDY    28  24  85 N17G28    29.73R WCI  16
PEORIA         LGT SNOW  20  14  77 N13G28    29.85R WCI   7
LACON*         LGT SNOW  18  14  84 N17G25    29.85R WCI   3
LINCOLN*       CLOUDY    27  22  84 N17G24    29.81R WCI  14
SPRINGFIELD    CLOUDY    27  21  78 N23       29.80R WCI  12
TAYLORVILLE    FLURRIES  28  27  93 N22G30    29.76R WCI  15
$$

ILZ033-039-045-046-055>057-062-063-020300-
EAST-CENTRAL ILLINOIS

CITY           SKY/WX    TMP DP  RH WIND       PRES   REMARKS
CHAMPAIGN      FLURRIES  27  23  85 N23G30    29.66R WCI  12
DANVILLE*      LGT SNOW  27  26  96 N23G32    29.61R WCI  12
RANTOUL*       LGT SNOW  26  23  88 N25       29.66R WCI  11
MATTOON        CLOUDY    32  29  88 NW21      29.65R WCI  20
PARIS*         LGT SNOW  33  33 100 W9        29.63R WCI  25
$$

ILZ079-100>102-020300-
SOUTHWEST ILLINOIS

CITY           SKY/WX    TMP DP  RH WIND       PRES   REMARKS
ALTON          DRIZZLE   32  28  86 NW23      29.80R WCI  19
BELLEVILLE     LGT RAIN  35  35  99 NW13G21   29.76R WCI  27
CAHOKIA*       CLOUDY    34  31  88 NW23G32   29.81R WCI  22
SPARTA*        CLOUDY    36  32  87 NW13G18   29.77R WCI  27
$$

ILZ064>066-069>071-074>076-080>082-084>086-088>090-092>094-020300-
SOUTH-CENTRAL ILLINOIS

CITY           SKY/WX    TMP DP  RH WIND       PRES   REMARKS
CARBONDALE     CLOUDY    40  34  79 NW16G25   29.75R
CAIRO*         CLOUDY    44  38  79 W17G26    29.75R
EFFINGHAM*     CLOUDY    34  31  90 W13G21    29.70R WCI  25
MARION         CLOUDY    41  36  81 W15G22    29.73R
MT. VERNON     CLOUDY    37  30  75 W9G20     29.72R WCI  31
CENTRALIA*     DRIZZLE   36  32  87 W16       29.72R WCI  26
SALEM*         LGT RAIN  38  34  85 NW17      29.72R WCI  28
METROPOLIS*    CLOUDY    46  45  99 W22G29    29.70R
$$

ILZ067-068-072-073-078-083-087-091-020300-
SOUTHEAST ILLINOIS

CITY           SKY/WX    TMP DP  RH WIND       PRES   REMARKS
LAWRENCEVILLE  CLOUDY    39  38  96 W14       29.65S WCI  31
FLORA*         CLOUDY    36  33  90 NW15      29.69R WCI  27
FAIRFIELD*     CLOUDY    39  36  87 W9        29.69R WCI  33
HARRISBURG*    CLOUDY    42  40  94 W14       29.71S
ROBINSON*      CLOUDY    37  35  93 W13G18    29.66R WCI  28
CARMI*         CLOUDY    42  40  93 W13       29.68R
$$

ABBREVIATIONS USED IN REMARKS
   TC - TEMPERATURE IN CELSIUS
  WCI - WIND CHILL INDEX
   HX - HEAT INDEX
  VSB - VISIBILITY
$$



USA.gov is the U.S. government's official web portal to all federal, state and local government web resources and services.